Year,Month,Day,Hour,Minute,Value (Times are PST for temperature in C)
2006,09,23,00,00,10.90
2006,09,23,00,01,10.90
2006,09,23,00,02,10.90
2006,09,23,00,03,10.90
2006,09,23,00,04,10.90
2006,09,23,00,05,10.90
2006,09,23,00,06,10.90
2006,09,23,00,07,10.90
2006,09,23,00,08,10.90
2006,09,23,00,09,10.90
2006,09,23,00,10,10.90
2006,09,23,00,11,10.80
2006,09,23,00,12,10.80
2006,09,23,00,13,10.80
2006,09,23,00,14,10.80
2006,09,23,00,15,10.80
2006,09,23,00,16,10.80
2006,09,23,00,17,10.70
2006,09,23,00,18,10.70
2006,09,23,00,19,10.70
2006,09,23,00,20,10.70
2006,09,23,00,21,10.70
2006,09,23,00,22,10.70
2006,09,23,00,23,10.70
2006,09,23,00,24,10.70
2006,09,23,00,25,10.60
2006,09,23,00,26,10.60
2006,09,23,00,27,10.60
2006,09,23,00,28,10.60
2006,09,23,00,29,10.60
2006,09,23,00,30,10.60
2006,09,23,00,31,10.60
2006,09,23,00,32,10.60
2006,09,23,00,33,10.60
2006,09,23,00,34,10.60
2006,09,23,00,35,10.60
2006,09,23,00,36,10.60
2006,09,23,00,37,10.50
2006,09,23,00,38,10.40
2006,09,23,00,39,10.40
2006,09,23,00,40,10.40
2006,09,23,00,41,10.40
2006,09,23,00,42,10.40
2006,09,23,00,43,10.40
2006,09,23,00,44,10.40
2006,09,23,00,45,10.40
2006,09,23,00,46,10.30
2006,09,23,00,47,10.30
2006,09,23,00,48,10.30
2006,09,23,00,49,10.30
2006,09,23,00,50,10.30
2006,09,23,00,51,10.30
2006,09,23,00,52,10.30
2006,09,23,00,53,10.30
2006,09,23,00,54,10.30
2006,09,23,00,55,10.30
2006,09,23,00,56,10.30
2006,09,23,00,57,10.30
2006,09,23,00,58,10.30
2006,09,23,00,59,10.30
2006,09,23,01,00,10.30
2006,09,23,01,01,10.30
2006,09,23,01,02,10.30
2006,09,23,01,03,10.30
2006,09,23,01,04,10.30
2006,09,23,01,05,10.30
2006,09,23,01,06,10.30
2006,09,23,01,07,10.30
2006,09,23,01,08,10.30
2006,09,23,01,09,10.30
2006,09,23,01,10,10.30
2006,09,23,01,11,10.20
2006,09,23,01,12,10.20
2006,09,23,01,13,10.20
2006,09,23,01,14,10.20
2006,09,23,01,15,10.20
2006,09,23,01,16,10.20
2006,09,23,01,17,10.20
2006,09,23,01,18,10.20
2006,09,23,01,19,10.20
2006,09,23,01,20,10.20
2006,09,23,01,21,10.20
2006,09,23,01,22,10.20
2006,09,23,01,23,10.20
2006,09,23,01,24,10.20
2006,09,23,01,25,10.20
2006,09,23,01,26,10.10
2006,09,23,01,27,10.10
2006,09,23,01,28,10.10
2006,09,23,01,29,10.10
2006,09,23,01,30,10.10
2006,09,23,01,31,10.10
2006,09,23,01,32,10.10
2006,09,23,01,33,10.10
2006,09,23,01,34,10.10
2006,09,23,01,35,10.10
2006,09,23,01,36,10.10
2006,09,23,01,37,10.10
2006,09,23,01,38,10.10
2006,09,23,01,39,10.00
2006,09,23,01,40,9.90
2006,09,23,01,41,9.90
2006,09,23,01,42,9.90
2006,09,23,01,43,9.90
2006,09,23,01,44,9.90
2006,09,23,01,45,9.90
2006,09,23,01,46,9.90
2006,09,23,01,47,9.90
2006,09,23,01,48,9.90
2006,09,23,01,49,9.90
2006,09,23,01,50,9.90
2006,09,23,01,51,9.90
2006,09,23,01,52,9.90
2006,09,23,01,53,9.90
2006,09,23,01,54,9.90
2006,09,23,01,55,9.90
2006,09,23,01,56,9.90
2006,09,23,01,57,9.90
2006,09,23,01,58,9.90
2006,09,23,01,59,9.90
2006,09,23,02,00,9.90
2006,09,23,02,01,9.90
2006,09,23,02,02,9.90
2006,09,23,02,03,9.90
2006,09,23,02,04,9.90
2006,09,23,02,05,9.90
2006,09,23,02,06,9.90
2006,09,23,02,07,9.90
2006,09,23,02,08,9.90
2006,09,23,02,09,9.90
2006,09,23,02,10,9.90
2006,09,23,02,11,9.90
2006,09,23,02,12,9.90
2006,09,23,02,13,9.90
2006,09,23,02,14,9.90
2006,09,23,02,15,9.90
2006,09,23,02,16,9.90
2006,09,23,02,17,9.90
2006,09,23,02,18,9.90
2006,09,23,02,19,9.90
2006,09,23,02,20,9.90
2006,09,23,02,21,9.90
2006,09,23,02,22,9.90
2006,09,23,02,23,9.90
2006,09,23,02,24,9.90
2006,09,23,02,25,9.90
2006,09,23,02,26,9.90
2006,09,23,02,27,9.90
2006,09,23,02,28,9.90
2006,09,23,03,35,9.70
2006,09,23,03,36,9.70
2006,09,23,03,37,9.70
2006,09,23,03,38,9.70
2006,09,23,03,39,9.70
2006,09,23,03,40,9.60
2006,09,23,03,41,9.60
2006,09,23,03,42,9.60
2006,09,23,03,43,9.60
2006,09,23,03,44,9.60
2006,09,23,03,45,9.60
2006,09,23,03,46,9.60
2006,09,23,03,47,9.60
2006,09,23,03,48,9.60
2006,09,23,03,49,9.60
2006,09,23,03,50,9.70
2006,09,23,03,51,9.70
2006,09,23,03,52,9.70
2006,09,23,03,53,9.70
2006,09,23,03,54,9.70
2006,09,23,03,55,9.70
2006,09,23,03,56,9.70
2006,09,23,03,57,9.70
2006,09,23,03,58,9.70
2006,09,23,03,59,9.70
2006,09,23,04,00,9.70
2006,09,23,04,01,9.70
2006,09,23,04,02,9.70
2006,09,23,04,03,9.70
2006,09,23,04,04,9.70
2006,09,23,04,05,9.70
2006,09,23,04,06,9.70
2006,09,23,04,07,9.70
2006,09,23,04,08,9.70
2006,09,23,04,09,9.70
2006,09,23,04,10,9.70
2006,09,23,04,11,9.70
2006,09,23,04,12,9.70
2006,09,23,04,13,9.80
2006,09,23,04,14,9.80
2006,09,23,04,15,9.80
2006,09,23,04,16,9.90
2006,09,23,04,17,9.90
2006,09,23,04,18,9.90
2006,09,23,04,19,9.90
2006,09,23,04,20,9.90
2006,09,23,04,21,9.90
2006,09,23,04,22,9.90
2006,09,23,04,23,9.90
2006,09,23,04,24,9.90
2006,09,23,04,25,9.90
2006,09,23,04,26,9.90
2006,09,23,04,27,9.90
2006,09,23,04,28,9.90
2006,09,23,04,29,9.90
2006,09,23,04,30,9.90
2006,09,23,04,31,9.90
2006,09,23,04,32,9.90
2006,09,23,04,33,9.90
2006,09,23,04,34,9.90
2006,09,23,04,35,9.90
2006,09,23,04,36,9.90
2006,09,23,04,37,9.90
2006,09,23,04,38,9.90
2006,09,23,04,39,9.90
2006,09,23,04,40,9.90
2006,09,23,04,41,9.90
2006,09,23,04,42,9.90
2006,09,23,04,43,9.90
2006,09,23,04,44,9.90
2006,09,23,04,45,9.90
2006,09,23,04,46,9.90
2006,09,23,04,47,9.90
2006,09,23,04,48,9.90
2006,09,23,04,49,9.90
2006,09,23,04,50,9.90
2006,09,23,04,51,9.90
2006,09,23,04,52,9.90
2006,09,23,04,53,9.90
2006,09,23,04,54,9.90
2006,09,23,04,55,9.90
2006,09,23,04,56,9.90
2006,09,23,04,57,9.90
2006,09,23,04,58,9.90
2006,09,23,04,59,9.90
2006,09,23,05,00,9.90
2006,09,23,05,01,9.90
2006,09,23,05,02,9.90
2006,09,23,05,03,9.90
2006,09,23,05,04,9.90
2006,09,23,05,05,9.90
2006,09,23,05,06,9.90
2006,09,23,05,07,9.90
2006,09,23,05,08,9.90
2006,09,23,05,09,9.90
2006,09,23,05,10,9.90
2006,09,23,05,11,9.90
2006,09,23,05,12,9.90
2006,09,23,05,13,9.90
2006,09,23,05,14,9.90
2006,09,23,05,15,9.90
2006,09,23,05,16,9.90
2006,09,23,05,17,9.90
2006,09,23,05,18,9.90
2006,09,23,05,19,9.90
2006,09,23,05,20,9.90
2006,09,23,05,21,9.90
2006,09,23,05,22,9.90
2006,09,23,05,23,9.90
2006,09,23,05,24,9.90
2006,09,23,05,25,9.80
2006,09,23,05,26,9.80
2006,09,23,05,27,9.80
2006,09,23,05,28,9.70
2006,09,23,05,29,9.70
2006,09,23,05,30,9.70
2006,09,23,05,31,9.70
2006,09,23,05,32,9.70
2006,09,23,05,33,9.70
2006,09,23,05,34,9.60
2006,09,23,05,35,9.60
2006,09,23,05,36,9.60
2006,09,23,05,37,9.60
2006,09,23,05,38,9.60
2006,09,23,05,39,9.50
2006,09,23,05,40,9.50
2006,09,23,05,41,9.50
2006,09,23,05,42,9.50
2006,09,23,05,43,9.50
2006,09,23,05,44,9.40
2006,09,23,05,45,9.40
2006,09,23,05,46,9.40
2006,09,23,05,47,9.40
2006,09,23,05,48,9.40
2006,09,23,05,49,9.40
2006,09,23,05,50,9.30
2006,09,23,05,51,9.30
2006,09,23,05,52,9.30
2006,09,23,05,53,9.30
2006,09,23,05,54,9.30
2006,09,23,05,55,9.30
2006,09,23,05,56,9.30
2006,09,23,05,57,9.30
2006,09,23,05,58,9.30
2006,09,23,05,59,9.30
2006,09,23,06,00,9.30
2006,09,23,06,01,9.30
2006,09,23,06,02,9.40
2006,09,23,06,03,9.40
2006,09,23,06,04,9.40
2006,09,23,06,05,9.50
2006,09,23,06,06,9.50
2006,09,23,06,07,9.50
2006,09,23,06,08,9.60
2006,09,23,06,09,9.60
2006,09,23,06,10,9.60
2006,09,23,06,11,9.70
2006,09,23,06,12,9.70
2006,09,23,06,13,9.70
2006,09,23,06,14,9.70
2006,09,23,06,15,9.70
2006,09,23,06,16,9.70
2006,09,23,06,17,9.70
2006,09,23,06,18,9.70
2006,09,23,06,19,9.70
2006,09,23,06,20,9.70
2006,09,23,06,21,9.70
2006,09,23,06,22,9.70
2006,09,23,06,23,9.70
2006,09,23,06,24,9.70
2006,09,23,06,25,9.70
2006,09,23,06,26,9.70
2006,09,23,06,27,9.70
2006,09,23,06,28,9.70
2006,09,23,06,29,9.70
2006,09,23,06,30,9.70
2006,09,23,06,31,9.70
2006,09,23,06,32,9.70
2006,09,23,06,33,9.70
2006,09,23,06,34,9.70
2006,09,23,06,35,9.70
2006,09,23,06,36,9.70
2006,09,23,06,37,9.70
2006,09,23,06,38,9.70
2006,09,23,06,39,9.70
2006,09,23,06,40,9.70
2006,09,23,06,41,9.70
2006,09,23,06,42,9.70
2006,09,23,06,43,9.60
2006,09,23,06,44,9.60
2006,09,23,06,45,9.60
2006,09,23,06,46,9.60
2006,09,23,06,47,9.60
2006,09,23,06,48,9.60
2006,09,23,06,49,9.60
2006,09,23,06,50,9.60
2006,09,23,06,51,9.60
2006,09,23,06,52,9.60
2006,09,23,06,53,9.60
2006,09,23,06,54,9.60
2006,09,23,06,55,9.60
2006,09,23,06,56,9.60
2006,09,23,06,57,9.60
2006,09,23,06,58,9.60
2006,09,23,06,59,9.60
2006,09,23,07,00,9.60
2006,09,23,07,01,9.60
2006,09,23,07,02,9.60
2006,09,23,07,03,9.60
2006,09,23,07,04,9.60
2006,09,23,07,05,9.70
2006,09,23,07,06,9.70
2006,09,23,07,07,9.70
2006,09,23,07,08,9.70
2006,09,23,07,09,9.70
2006,09,23,07,10,9.70
2006,09,23,07,11,9.80
2006,09,23,07,12,9.80
2006,09,23,07,13,9.80
2006,09,23,07,14,9.80
2006,09,23,07,15,9.80
2006,09,23,07,16,9.90
2006,09,23,07,17,9.90
2006,09,23,07,18,9.90
2006,09,23,07,19,9.90
2006,09,23,07,20,9.90
2006,09,23,07,21,9.90
2006,09,23,07,22,9.90
2006,09,23,07,23,9.90
2006,09,23,07,24,9.90
2006,09,23,07,25,9.90
2006,09,23,07,26,9.90
2006,09,23,07,27,9.90
2006,09,23,07,28,9.90
2006,09,23,07,29,10.10
2006,09,23,07,30,10.10
2006,09,23,07,31,10.10
2006,09,23,07,32,10.10
2006,09,23,07,33,10.10
2006,09,23,07,34,10.10
2006,09,23,07,35,10.10
2006,09,23,07,36,10.10
2006,09,23,07,37,10.10
2006,09,23,07,38,10.10
2006,09,23,07,39,10.10
2006,09,23,07,40,10.10
2006,09,23,07,41,10.10
2006,09,23,07,42,10.10
2006,09,23,07,43,10.10
2006,09,23,07,44,10.10
2006,09,23,07,45,10.10
2006,09,23,07,46,10.10
2006,09,23,07,47,10.10
2006,09,23,07,48,10.10
2006,09,23,07,49,10.10
2006,09,23,07,50,10.10
2006,09,23,07,51,10.10
2006,09,23,07,52,10.10
2006,09,23,07,53,10.10
2006,09,23,07,54,10.10
2006,09,23,07,55,10.10
2006,09,23,07,56,10.20
2006,09,23,07,57,10.20
2006,09,23,07,58,10.20
2006,09,23,07,59,10.20
2006,09,23,08,00,10.20
2006,09,23,08,01,10.30
2006,09,23,08,02,10.30
2006,09,23,08,03,10.30
2006,09,23,08,04,10.30
2006,09,23,08,05,10.40
2006,09,23,08,06,10.40
2006,09,23,08,07,10.40
2006,09,23,08,08,10.40
2006,09,23,08,09,10.50
2006,09,23,08,10,10.60
2006,09,23,08,11,10.60
2006,09,23,08,12,10.60
2006,09,23,08,13,10.60
2006,09,23,08,14,10.60
2006,09,23,08,15,10.60
2006,09,23,08,16,10.70
2006,09,23,08,17,10.70
2006,09,23,08,18,10.70
2006,09,23,08,19,10.70
2006,09,23,08,20,10.80
2006,09,23,08,21,10.80
2006,09,23,08,22,10.90
2006,09,23,08,23,10.90
2006,09,23,08,24,10.90
2006,09,23,08,25,11.10
2006,09,23,08,26,11.10
2006,09,23,08,27,11.10
2006,09,23,08,28,11.20
2006,09,23,08,29,11.20
2006,09,23,08,30,11.20
2006,09,23,08,31,11.30
2006,09,23,08,32,11.30
2006,09,23,08,33,11.30
2006,09,23,08,34,11.30
2006,09,23,08,35,11.40
2006,09,23,08,36,11.40
2006,09,23,08,37,11.40
2006,09,23,08,38,11.40
2006,09,23,08,39,11.60
2006,09,23,08,40,11.60
2006,09,23,08,41,11.60
2006,09,23,08,42,11.60
2006,09,23,08,43,11.70
2006,09,23,08,44,11.80
2006,09,23,08,45,11.80
2006,09,23,08,46,11.80
2006,09,23,08,47,11.90
2006,09,23,08,48,12.00
2006,09,23,08,49,12.00
2006,09,23,08,50,12.00
2006,09,23,08,51,12.10
2006,09,23,08,52,12.10
2006,09,23,08,53,12.20
2006,09,23,08,54,12.20
2006,09,23,08,55,12.30
2006,09,23,08,56,12.30
2006,09,23,08,57,12.30
2006,09,23,08,58,12.40
2006,09,23,08,59,12.40
2006,09,23,09,00,12.50
2006,09,23,09,01,12.50
2006,09,23,09,02,12.60
2006,09,23,09,03,12.60
2006,09,23,09,04,12.70
2006,09,23,09,05,12.70
2006,09,23,09,06,12.70
2006,09,23,09,07,12.80
2006,09,23,09,08,12.80
2006,09,23,09,09,12.80
2006,09,23,09,10,12.80
2006,09,23,09,11,12.90
2006,09,23,09,12,12.90
2006,09,23,09,13,12.90
2006,09,23,09,14,13.00
2006,09,23,09,15,13.10
2006,09,23,09,16,13.10
2006,09,23,09,17,13.20
2006,09,23,09,18,13.20
2006,09,23,09,19,13.30
2006,09,23,09,20,13.30
2006,09,23,09,21,13.30
2006,09,23,09,22,13.30
2006,09,23,09,23,13.40
2006,09,23,09,24,13.40
2006,09,23,09,25,13.50
2006,09,23,09,26,13.50
2006,09,23,09,27,13.60
2006,09,23,09,28,13.60
2006,09,23,09,29,13.60
2006,09,23,09,30,13.70
2006,09,23,09,31,13.70
2006,09,23,09,32,13.70
2006,09,23,09,33,13.80
2006,09,23,09,34,13.80
2006,09,23,09,35,13.90
2006,09,23,09,36,14.00
2006,09,23,09,37,14.00
2006,09,23,09,38,14.00
2006,09,23,09,39,14.10
2006,09,23,09,40,14.10
2006,09,23,09,41,14.10
2006,09,23,09,42,14.20
2006,09,23,09,43,14.20
2006,09,23,09,44,14.20
2006,09,23,09,45,14.30
2006,09,23,09,46,14.30
2006,09,23,09,47,14.40
2006,09,23,09,48,14.40
2006,09,23,09,49,14.40
2006,09,23,09,50,14.50
2006,09,23,09,51,14.50
2006,09,23,09,52,14.60
2006,09,23,09,53,14.60
2006,09,23,09,54,14.70
2006,09,23,09,55,14.70
2006,09,23,09,56,14.70
2006,09,23,09,57,14.70
2006,09,23,09,58,14.80
2006,09,23,09,59,14.80
2006,09,23,10,00,14.80
2006,09,23,10,01,14.80
2006,09,23,10,02,14.80
2006,09,23,10,03,14.80
2006,09,23,10,04,14.80
2006,09,23,10,05,14.80
2006,09,23,10,06,14.90
2006,09,23,10,07,14.90
2006,09,23,10,08,15.00
2006,09,23,10,09,15.00
2006,09,23,10,10,15.10
2006,09,23,10,11,15.10
2006,09,23,10,12,15.00
2006,09,23,10,13,15.00
2006,09,23,10,14,15.00
2006,09,23,10,15,15.00
2006,09,23,10,16,15.00
2006,09,23,10,17,15.00
2006,09,23,10,18,15.00
2006,09,23,10,19,14.90
2006,09,23,10,20,15.00
2006,09,23,10,21,15.00
2006,09,23,10,22,15.10
2006,09,23,10,23,15.10
2006,09,23,10,24,15.10
2006,09,23,10,25,15.10
2006,09,23,10,26,15.10
2006,09,23,10,27,15.10
2006,09,23,10,28,15.10
2006,09,23,10,29,15.10
2006,09,23,10,30,15.10
2006,09,23,10,31,15.10
2006,09,23,10,32,15.10
2006,09,23,10,33,15.20
2006,09,23,10,34,15.20
2006,09,23,10,35,15.20
2006,09,23,10,36,15.20
2006,09,23,10,37,15.20
2006,09,23,10,38,15.20
2006,09,23,10,39,15.30
2006,09,23,10,40,15.30
2006,09,23,10,41,15.30
2006,09,23,10,42,15.30
2006,09,23,10,43,15.30
2006,09,23,10,44,15.30
2006,09,23,10,45,15.30
2006,09,23,10,46,15.40
2006,09,23,10,47,15.50
2006,09,23,10,48,15.50
2006,09,23,10,49,15.60
2006,09,23,10,50,15.70
2006,09,23,10,51,15.70
2006,09,23,10,52,15.60
2006,09,23,10,53,15.60
2006,09,23,10,54,15.60
2006,09,23,10,55,15.50
2006,09,23,10,56,15.60
2006,09,23,10,57,15.60
2006,09,23,10,58,15.60
2006,09,23,10,59,15.70
2006,09,23,11,00,15.80
2006,09,23,11,01,15.80
2006,09,23,11,02,15.90
2006,09,23,11,03,15.90
2006,09,23,11,04,16.00
2006,09,23,11,05,16.10
2006,09,23,11,06,16.10
2006,09,23,11,07,16.10
2006,09,23,11,08,16.10
2006,09,23,11,09,16.10
2006,09,23,11,10,16.00
2006,09,23,11,11,15.90
2006,09,23,11,12,15.80
2006,09,23,11,13,15.80
2006,09,23,11,14,15.80
2006,09,23,11,15,15.80
2006,09,23,11,16,15.80
2006,09,23,11,17,15.80
2006,09,23,11,18,15.80
2006,09,23,11,19,15.80
2006,09,23,11,20,15.80
2006,09,23,11,21,15.80
2006,09,23,11,22,15.80
2006,09,23,11,23,15.80
2006,09,23,11,24,15.80
2006,09,23,11,25,15.80
2006,09,23,11,26,15.80
2006,09,23,11,27,15.80
2006,09,23,11,28,15.80
2006,09,23,11,29,15.80
2006,09,23,11,30,15.80
2006,09,23,11,31,15.90
2006,09,23,11,32,15.90
2006,09,23,11,33,15.90
2006,09,23,11,34,16.00
2006,09,23,11,35,16.10
2006,09,23,11,36,16.10
2006,09,23,11,37,16.10
2006,09,23,11,38,16.10
2006,09,23,11,39,16.10
2006,09,23,11,40,16.10
2006,09,23,11,41,16.10
2006,09,23,11,42,16.20
2006,09,23,11,43,16.30
2006,09,23,11,44,16.30
2006,09,23,11,45,16.40
2006,09,23,11,46,16.40
2006,09,23,11,47,16.40
2006,09,23,11,48,16.40
2006,09,23,11,49,16.40
2006,09,23,11,50,16.40
2006,09,23,11,51,16.40
2006,09,23,11,52,16.40
2006,09,23,11,53,16.40
2006,09,23,11,54,16.50
2006,09,23,11,55,16.60
2006,09,23,11,56,16.60
2006,09,23,11,57,16.60
2006,09,23,11,58,16.60
2006,09,23,11,59,16.60
2006,09,23,12,00,16.60
2006,09,23,12,01,16.70
2006,09,23,12,02,16.70
2006,09,23,12,03,16.70
2006,09,23,12,04,16.70
2006,09,23,12,05,16.70
2006,09,23,12,06,16.70
2006,09,23,12,07,16.70
2006,09,23,12,08,16.70
2006,09,23,12,09,16.70
2006,09,23,12,10,16.70
2006,09,23,12,11,16.70
2006,09,23,12,12,16.70
2006,09,23,12,13,16.70
2006,09,23,12,14,16.70
2006,09,23,12,15,16.70
2006,09,23,12,16,16.70
2006,09,23,12,17,16.80
2006,09,23,12,18,16.80
2006,09,23,12,19,16.90
2006,09,23,12,20,17.00
2006,09,23,12,21,17.00
2006,09,23,12,22,17.10
2006,09,23,12,23,17.20
2006,09,23,12,24,17.30
2006,09,23,12,25,17.30
2006,09,23,12,26,17.30
2006,09,23,12,27,17.30
2006,09,23,12,28,17.30
2006,09,23,12,29,17.30
2006,09,23,12,30,17.30
2006,09,23,12,31,17.30
2006,09,23,12,32,17.40
2006,09,23,12,33,17.50
2006,09,23,12,34,17.50
2006,09,23,12,35,17.50
2006,09,23,12,36,17.40
2006,09,23,12,37,17.40
2006,09,23,12,38,17.40
2006,09,23,12,39,17.40
2006,09,23,12,40,17.40
2006,09,23,12,41,17.40
2006,09,23,12,42,17.40
2006,09,23,12,43,17.40
2006,09,23,12,44,17.40
2006,09,23,12,45,17.40
2006,09,23,12,46,17.40
2006,09,23,12,47,17.40
2006,09,23,12,48,17.40
2006,09,23,12,49,17.40
2006,09,23,12,50,17.40
2006,09,23,12,51,17.50
2006,09,23,12,52,17.60
2006,09,23,12,53,17.70
2006,09,23,12,54,17.70
2006,09,23,12,55,17.70
2006,09,23,12,56,17.70
2006,09,23,12,57,17.70
2006,09,23,12,58,17.60
2006,09,23,12,59,17.70
2006,09,23,13,00,17.70
2006,09,23,13,01,17.70
2006,09,23,13,02,17.70
2006,09,23,13,03,17.70
2006,09,23,13,04,17.70
2006,09,23,13,05,17.80
2006,09,23,13,06,17.90
2006,09,23,13,07,17.90
2006,09,23,13,08,17.90
2006,09,23,13,09,17.90
2006,09,23,13,10,17.90
2006,09,23,13,11,17.90
2006,09,23,13,12,17.90
2006,09,23,13,13,17.90
2006,09,23,13,14,17.90
2006,09,23,13,15,17.90
2006,09,23,13,16,17.90
2006,09,23,13,17,17.90
2006,09,23,13,18,17.90
2006,09,23,13,19,17.90
2006,09,23,13,20,17.90
2006,09,23,13,21,18.10
2006,09,23,13,22,18.10
2006,09,23,13,23,18.10
2006,09,23,13,24,18.10
2006,09,23,13,25,18.00
2006,09,23,13,26,17.90
2006,09,23,13,27,17.90
2006,09,23,13,28,17.90
2006,09,23,13,29,18.00
2006,09,23,13,30,18.10
2006,09,23,13,31,18.20
2006,09,23,13,32,18.20
2006,09,23,13,33,18.20
2006,09,23,13,34,18.20
2006,09,23,13,35,18.20
2006,09,23,13,36,18.20
2006,09,23,13,37,18.30
2006,09,23,13,38,18.20
2006,09,23,13,39,18.20
2006,09,23,13,40,18.20
2006,09,23,13,41,18.20
2006,09,23,13,42,18.20
2006,09,23,13,43,18.20
2006,09,23,13,44,18.20
2006,09,23,13,45,18.20
2006,09,23,13,46,18.20
2006,09,23,13,47,18.20
2006,09,23,13,48,18.20
2006,09,23,13,49,18.20
2006,09,23,13,50,18.20
2006,09,23,13,51,18.20
2006,09,23,13,52,18.30
2006,09,23,13,53,18.40
2006,09,23,13,54,18.50
2006,09,23,13,55,18.60
2006,09,23,13,56,18.70
2006,09,23,13,57,18.70
2006,09,23,13,58,18.70
2006,09,23,13,59,18.80
2006,09,23,14,00,18.80
2006,09,23,14,01,18.80
2006,09,23,14,02,18.80
2006,09,23,14,03,18.90
2006,09,23,14,04,18.90
2006,09,23,14,05,18.90
2006,09,23,14,06,18.80
2006,09,23,14,07,18.80
2006,09,23,14,08,18.70
2006,09,23,14,09,18.70
2006,09,23,14,10,18.60
2006,09,23,14,11,18.60
2006,09,23,14,12,18.60
2006,09,23,14,13,18.60
2006,09,23,14,14,18.60
2006,09,23,14,15,18.70
2006,09,23,14,16,18.70
2006,09,23,14,17,18.80
2006,09,23,14,18,18.90
2006,09,23,14,19,19.00
2006,09,23,14,20,19.10
2006,09,23,14,21,19.00
2006,09,23,14,22,18.90
2006,09,23,14,23,18.90
2006,09,23,14,24,18.90
2006,09,23,14,25,18.90
2006,09,23,14,26,19.00
2006,09,23,14,27,19.10
2006,09,23,14,28,19.10
2006,09,23,14,29,19.20
2006,09,23,14,30,19.20
2006,09,23,14,31,19.20
2006,09,23,14,32,19.20
2006,09,23,14,33,19.20
2006,09,23,14,34,19.30
2006,09,23,14,35,19.30
2006,09,23,14,36,19.30
2006,09,23,14,37,19.30
2006,09,23,14,38,19.40
2006,09,23,14,39,19.50
2006,09,23,14,40,19.40
2006,09,23,14,41,19.40
2006,09,23,14,42,19.40
2006,09,23,14,43,19.30
2006,09,23,14,44,19.30
2006,09,23,14,45,19.40
2006,09,23,14,46,19.30
2006,09,23,14,47,19.20
2006,09,23,14,48,19.20
2006,09,23,14,49,19.30
2006,09,23,14,50,19.30
2006,09,23,14,51,19.30
2006,09,23,14,52,19.20
2006,09,23,14,53,19.30
2006,09,23,14,54,19.30
2006,09,23,14,55,19.30
2006,09,23,14,56,19.30
2006,09,23,14,57,19.30
2006,09,23,14,58,19.40
2006,09,23,14,59,19.40
2006,09,23,15,00,19.40
2006,09,23,15,01,19.40
2006,09,23,15,02,19.30
2006,09,23,15,03,19.20
2006,09,23,15,04,19.30
2006,09,23,15,05,19.30
2006,09,23,15,06,19.30
2006,09,23,15,07,19.30
2006,09,23,15,08,19.30
2006,09,23,15,09,19.40
2006,09,23,15,10,19.40
2006,09,23,15,11,19.30
2006,09,23,15,12,19.30
2006,09,23,15,13,19.30
2006,09,23,15,14,19.20
2006,09,23,15,15,19.30
2006,09,23,15,16,19.30
2006,09,23,15,17,19.30
2006,09,23,15,18,19.20
2006,09,23,15,19,19.10
2006,09,23,15,20,19.10
2006,09,23,15,21,19.10
2006,09,23,15,22,19.20
2006,09,23,15,23,19.30
2006,09,23,15,24,19.30
2006,09,23,15,25,19.30
2006,09,23,15,26,19.30
2006,09,23,15,27,19.30
2006,09,23,15,28,19.20
2006,09,23,15,29,19.20
2006,09,23,15,30,19.30
2006,09,23,15,31,19.30
2006,09,23,15,32,19.30
2006,09,23,15,33,19.30
2006,09,23,15,34,19.30
2006,09,23,15,35,19.40
2006,09,23,15,36,19.40
2006,09,23,15,37,19.40
2006,09,23,15,38,19.40
2006,09,23,15,39,19.40
2006,09,23,15,40,19.40
2006,09,23,15,41,19.50
2006,09,23,15,42,19.50
2006,09,23,15,43,19.60
2006,09,23,15,44,19.60
2006,09,23,15,45,19.70
2006,09,23,15,46,19.80
2006,09,23,15,47,19.90
2006,09,23,15,48,19.90
2006,09,23,15,49,19.90
2006,09,23,15,50,19.90
2006,09,23,15,51,19.90
2006,09,23,15,52,19.90
2006,09,23,15,53,19.90
2006,09,23,15,54,19.90
2006,09,23,15,55,19.90
2006,09,23,15,56,19.80
2006,09,23,15,57,19.70
2006,09,23,15,58,19.60
2006,09,23,15,59,19.60
2006,09,23,16,00,19.60
2006,09,23,16,01,19.60
2006,09,23,16,02,19.60
2006,09,23,16,03,19.60
2006,09,23,16,04,19.60
2006,09,23,16,05,19.60
2006,09,23,16,06,19.60
2006,09,23,16,07,19.60
2006,09,23,16,08,19.60
2006,09,23,16,09,19.60
2006,09,23,16,10,19.60
2006,09,23,16,11,19.60
2006,09,23,16,12,19.60
2006,09,23,16,13,19.60
2006,09,23,16,14,19.60
2006,09,23,16,15,19.60
2006,09,23,16,16,19.60
2006,09,23,16,17,19.60
2006,09,23,16,18,19.70
2006,09,23,16,19,19.60
2006,09,23,16,20,19.60
2006,09,23,16,21,19.70
2006,09,23,16,22,19.70
2006,09,23,16,23,19.70
2006,09,23,16,24,19.70
2006,09,23,16,25,19.70
2006,09,23,16,26,19.80
2006,09,23,16,27,19.80
2006,09,23,16,28,19.80
2006,09,23,16,29,19.80
2006,09,23,16,30,19.80
2006,09,23,16,31,19.80
2006,09,23,16,32,19.70
2006,09,23,16,33,19.70
2006,09,23,16,34,19.70
2006,09,23,16,35,19.80
2006,09,23,16,36,19.80
2006,09,23,16,37,19.80
2006,09,23,16,38,19.80
2006,09,23,16,39,19.90
2006,09,23,16,40,19.90
2006,09,23,16,41,19.90
2006,09,23,16,42,19.90
2006,09,23,16,43,20.10
2006,09,23,16,44,20.10
2006,09,23,16,45,20.10
2006,09,23,16,46,20.10
2006,09,23,16,47,20.10
2006,09,23,16,48,20.10
2006,09,23,16,49,20.00
2006,09,23,16,50,19.90
2006,09,23,16,51,19.90
2006,09,23,16,52,19.90
2006,09,23,16,53,19.90
2006,09,23,16,54,19.80
2006,09,23,16,55,19.70
2006,09,23,16,56,19.70
2006,09,23,16,57,19.70
2006,09,23,16,58,19.70
2006,09,23,16,59,19.70
2006,09,23,17,00,19.70
2006,09,23,17,01,19.60
2006,09,23,17,02,19.60
2006,09,23,17,03,19.60
2006,09,23,17,04,19.60
2006,09,23,17,05,19.50
2006,09,23,17,06,19.50
2006,09,23,17,07,19.50
2006,09,23,17,08,19.40
2006,09,23,17,09,19.40
2006,09,23,17,10,19.40
2006,09,23,17,11,19.50
2006,09,23,17,12,19.40
2006,09,23,17,13,19.40
2006,09,23,17,14,19.40
2006,09,23,17,15,19.40
2006,09,23,17,16,19.40
2006,09,23,17,17,19.40
2006,09,23,17,18,19.40
2006,09,23,17,19,19.40
2006,09,23,17,20,19.40
2006,09,23,17,21,19.30
2006,09,23,17,22,19.30
2006,09,23,17,23,19.30
2006,09,23,17,24,19.30
2006,09,23,17,25,19.30
2006,09,23,17,26,19.20
2006,09,23,17,27,19.10
2006,09,23,17,28,19.10
2006,09,23,17,29,19.20
2006,09,23,17,30,19.20
2006,09,23,17,31,19.20
2006,09,23,17,32,19.10
2006,09,23,17,33,19.10
2006,09,23,17,34,19.10
2006,09,23,17,35,19.00
2006,09,23,17,36,18.90
2006,09,23,17,37,18.90
2006,09,23,17,38,18.90
2006,09,23,17,39,18.90
2006,09,23,17,40,19.10
2006,09,23,17,41,19.10
2006,09,23,17,42,19.10
2006,09,23,17,43,19.10
2006,09,23,17,44,19.10
2006,09,23,17,45,19.10
2006,09,23,17,46,19.00
2006,09,23,17,47,18.90
2006,09,23,17,48,18.90
2006,09,23,17,49,18.90
2006,09,23,17,50,18.90
2006,09,23,17,51,18.90
2006,09,23,17,52,19.00
2006,09,23,17,53,19.00
2006,09,23,17,54,18.90
2006,09,23,17,55,18.90
2006,09,23,17,56,18.90
2006,09,23,17,57,18.90
2006,09,23,17,58,18.90
2006,09,23,17,59,18.80
2006,09,23,18,00,18.80
2006,09,23,18,01,18.80
2006,09,23,18,02,18.80
2006,09,23,18,03,18.80
2006,09,23,18,04,18.70
2006,09,23,18,05,18.70
2006,09,23,18,06,18.70
2006,09,23,18,07,18.60
2006,09,23,18,08,18.60
2006,09,23,18,09,18.60
2006,09,23,18,10,18.70
2006,09,23,18,11,18.70
2006,09,23,18,12,18.70
2006,09,23,18,13,18.70
2006,09,23,18,14,18.70
2006,09,23,18,15,18.70
2006,09,23,18,16,18.70
2006,09,23,18,17,18.70
2006,09,23,18,18,18.70
2006,09,23,18,19,18.70
2006,09,23,18,20,18.70
2006,09,23,18,21,18.70
2006,09,23,18,22,18.70
2006,09,23,18,23,18.70
2006,09,23,18,24,18.70
2006,09,23,18,25,18.70
2006,09,23,18,26,18.70
2006,09,23,18,27,18.70
2006,09,23,18,28,18.70
2006,09,23,18,29,18.70
2006,09,23,18,30,18.70
2006,09,23,18,31,18.70
2006,09,23,18,32,18.70
2006,09,23,18,33,18.70
2006,09,23,18,34,18.60
2006,09,23,18,35,18.50
2006,09,23,18,36,18.30
2006,09,23,18,37,18.00